sat.trackr.live / text

‹ back to catalog

ONEWEB-0419

NORAD 50494 · 2021-132AB

PAYLOAD ACTIVE UNKNOWN

§ Identity

Operator
Country
UK
Launch date
2021-12-27
Launch site
TYMSC
Launch vehicle
Mass (kg)
RCS (m²)

Purposes: comms

External: N2YO · Heavens-Above · Gunter

§ Orbital elements

Epoch: 2026-05-25T01:33:29.204640Z

Period
109.20 min
Inclination
87.9171°
Eccentricity
0.0001852
Mean motion
13.18664070 rev/d
Perigee alt
1,188.4 km
Apogee alt
1,191.2 km
Semi-major
7,568.0 km
B*
-7.1564e-6
RAAN
340.0571°
Arg perigee
96.9411°
Mean anomaly
263.1932°
Rev number
21,853

§ Raw data

ONEWEB-04191 50494U 21132AB  26145.06492135  .00000010  00000+0 -71564-5 0  99982 50494  87.9171 340.0571 0001852  96.9411 263.1932 13.18664070218534

JSON: /api/v1/satellites/50494 · /tle

For live sub-satellite position, see the globe view (requires WebGL).

§ Visibility from observer

Set your observer location to see the next 7 days of passes ≥ 10°. The values pass through the URL so the page stays shareable.

No JS? Fill the form by hand. The geolocation button needs JavaScript.